This is the latest recevied weather packets stored in our database for station/object W1REE. If no packets are shown the sender has not sent any weather packets the latest 10 day(s).
| Time | Temp. | Humidity | Pressure | Rain* | Wind** | Luminosity | Snow |
|---|---|---|---|---|---|---|---|
| 1777925949 | 22.78° C | 17% | 1010.1 hPa | 0 mm | - | 285 W/m² | - |
| 1777925646 | 22.22° C | 16% | 1010 hPa | 0 mm | - | 875 W/m² | - |
| 1777925343 | 22.22° C | 16% | 1010.1 hPa | 0 mm | - | 888 W/m² | - |
| 1777925040 | 22.22° C | 17% | 1009.9 hPa | 0 mm | - | 812 W/m² | - |
| 1777924737 | 21.67° C | 18% | 1010 hPa | 0 mm | - | 869 W/m² | - |
| 1777924432 | 21.11° C | 19% | 1010.1 hPa | 0 mm | - | 949 W/m² | - |
| 1777924129 | 21.11° C | 19% | 1010.4 hPa | 0 mm | - | 436 W/m² | - |
| 1777923825 | 20.56° C | 21% | 1010.6 hPa | 0 mm | - | 901 W/m² | - |
| 1777923521 | 21.11° C | 19% | 1010.7 hPa | 0 mm | - | 1228 W/m² | - |
| 1777923218 | 21.67° C | 18% | 1010.5 hPa | 0 mm | - | 726 W/m² | - |
| 1777922917 | 21.67° C | 16% | 1010.6 hPa | 0 mm | - | 947 W/m² | - |
| 1777922615 | 22.78° C | 13% | 1010.6 hPa | 0 mm | - | 234 W/m² | - |
| 1777922313 | 22.78° C | 14% | 1010.5 hPa | 0 mm | - | 311 W/m² | - |
| 1777922010 | 23.33° C | 13% | 1010.7 hPa | 0 mm | - | 1165 W/m² | - |
| 1777921705 | 22.22° C | 14% | 1010.5 hPa | 0 mm | - | 1195 W/m² | - |
| 1777921402 | 21.11° C | 17% | 1010.7 hPa | 0 mm | - | 1173 W/m² | - |
| 1777921099 | 21.11° C | 14% | 1010.9 hPa | 0 mm | - | 289 W/m² | - |
| 1777920796 | 21.67° C | 15% | 1010.9 hPa | 0 mm | - | 265 W/m² | - |
| 1777920492 | 21.67° C | 14% | 1011 hPa | 0 mm | - | 238 W/m² | - |
| 1777920188 | 22.22° C | 14% | 1010.9 hPa | 0 mm | - | 397 W/m² | - |
| 1777919883 | 22.78° C | 14% | 1011.2 hPa | 0 mm | - | 571 W/m² | - |
| 1777919581 | 22.78° C | 14% | 1011.2 hPa | 0 mm | - | 877 W/m² | - |
| 1777919279 | 22.78° C | 14% | 1011.3 hPa | 0 mm | - | 1234 W/m² | - |
| 1777918975 | 22.78° C | 14% | 1011.3 hPa | 0 mm | - | 1192 W/m² | - |
| 1777918673 | 21.67° C | 15% | 1011.8 hPa | 0 mm | - | 1210 W/m² | - |
* Rain latest hour (hover to see other rain measurements)
** Current wind speed in m/s (hover to see current wind gust speed)